Voltar ao catálogo

DELTA 1 DEB

AtivoLEO
NORAD 10643·DEBRIS·🇺🇸 United States

Lançado Jul 29, 1976 de Vandenberg Space Force Base

Loading…

Próximas Passagens (próximas 24 horas)

TLE

AtualizadoSource: Space-Track

Época: Sep 14, 2026, 08:59 UTC

1 10643U 76077D   26257.37441900 -.00000023  00000-0  19909-3 0  9998
2 10643 102.1332 213.0010 0168911 212.4611 303.3344 12.10390275215174

Acompanhe DELTA 1 DEB em tempo real com AllMySat

Download on the App Store